EW8494 Weather Reports


Display with metric or nautical units.
time (UTC)temp
F
wind
direction
speed
MPH
gust
MPH
rain 1hr
in
rain 24hr
in
rain mn
in
humidity
%
barometer
mb
20260506082202 61 0.0 0.0 0.00 0.00 0.00 59
20260506081143 62 0.0 0.0 0.00 0.00 0.00 60
20260506080142 63 0.0 0.0 0.00 0.00 0.00 58
20260506073139 63 0.0 2.0 0.00 0.00 0.00 54
20260506072140 63 0.0 0.0 0.00 0.00 0.00 60
20260506071140 62 0.0 0.0 0.00 0.00 0.00 58
20260506070220 63 0.0 0.0 0.00 0.00 0.00 58
20260506062159 65 0.0 0.0 0.00 0.00 0.00 56
20260506061139 66 0.0 0.0 0.00 0.00 0.00 54
20260506060157 67 0.0 0.0 0.00 0.00 0.00 49
20260506051137 68 135 1.0 3.0 0.00 0.00 0.00 49
20260506050138 69 0.0 0.0 0.00 0.00 0.00 48
20260506044136 72 158 1.0 2.0 0.00 0.00 0.00 40
20260506043156 72 0.0 1.0 0.00 0.00 0.00 39
20260506042136 72 135 1.0 3.0 0.00 0.00 0.00 38
20260506041137 72 158 1.0 2.0 0.00 0.00 0.00 38
20260506040134 73 0.0 2.0 0.00 0.00 0.00 39
20260506035134 74 0.0 0.0 0.00 0.00 0.00 37
20260506034135 75 158 1.0 3.0 0.00 0.00 0.00 35
20260506033135 75 158 2.0 4.0 0.00 0.00 0.00 36
20260506032134 75 135 1.0 3.0 0.00 0.00 0.00 37
20260506031134 77 135 1.0 2.0 0.00 0.00 0.00 34
20260506030134 78 68 1.0 4.0 0.00 0.00 0.00 31
20260506025133 80 68 1.0 2.0 0.00 0.00 0.00 28
20260506024133 83 0.0 0.0 0.00 0.00 0.00 27
20260506023132 84 0.0 0.0 0.00 0.00 0.00 23
20260506022133 85 0.0 0.0 0.00 0.00 0.00 21
20260506021132 84 0.0 0.0 0.00 0.00 0.00 19
20260506020132 84 0.0 0.0 0.00 0.00 0.00 22
20260506015131 83 0.0 0.0 0.00 0.00 0.00 21
20260506014131 83 0.0 0.0 0.00 0.00 0.00 21
20260506013132 85 0.0 3.0 0.00 0.00 0.00 23
20260506012132 85 0.0 2.0 0.00 0.00 0.00 26
20260506011130 85 0.0 2.0 0.00 0.00 0.00 17
20260506010150 84 0 2.0 4.0 0.00 0.00 0.00 19
20260506005131 85 0 3.0 6.0 0.00 0.00 0.00 17
20260506004150 85 23 2.0 6.0 0.00 0.00 0.00 16
20260506003130 85 45 3.0 8.0 0.00 0.00 0.00 17
20260506002149 85 23 1.0 3.0 0.00 0.00 0.00 16
20260506001149 85 23 2.0 6.0 0.00 0.00 0.00 18
20260506000128 85 0 4.0 8.0 0.00 0.00 0.00 16
20260505235127 85 0 2.0 5.0 0.00 0.00 0.00 17
20260505234128 84 0 5.0 10.0 0.00 0.00 0.00 19
20260505233146 84 0 3.0 9.0 0.00 0.00 0.00 20
20260505232128 85 0 3.0 6.0 0.00 0.00 0.00 21
20260505231126 85 23 3.0 8.0 0.00 0.00 0.00 18
20260505230127 84 0.0 2.0 0.00 0.00 0.00 17
20260505225125 84 0 3.0 7.0 0.00 0.00 0.00 25
20260505224126 84 45 2.0 4.0 0.00 0.00 0.00 23
20260505223125 83 23 2.0 4.0 0.00 0.00 0.00 26
20260505222126 83 0 2.0 5.0 0.00 0.00 0.00 23
20260505221125 83 0 1.0 5.0 0.00 0.00 0.00 25
20260505220125 82 0 4.0 9.0 0.00 0.00 0.00 26
20260505215126 82 23 3.0 9.0 0.00 0.00 0.00 30
20260505214124 82 45 4.0 11.0 0.00 0.00 0.00 29
20260505213147 82 0 5.0 11.0 0.00 0.00 0.00 25
20260505212124 81 45 2.0 4.0 0.00 0.00 0.00 27
20260505211123 81 0 4.0 9.0 0.00 0.00 0.00 30
20260505210122 81 0 7.0 12.0 0.00 0.00 0.00 33
20260505205124 81 23 3.0 6.0 0.00 0.00 0.00 33
20260505204124 80 23 3.0 11.0 0.00 0.00 0.00 29
20260505203122 80 0 4.0 10.0 0.00 0.00 0.00 30
20260505202121 79 23 4.0 8.0 0.00 0.00 0.00 30
20260505201124 79 45 4.0 12.0 0.00 0.00 0.00 34
20260505200143 78 0 4.0 9.0 0.00 0.00 0.00 31
20260505195122 78 23 4.0 10.0 0.00 0.00 0.00 32
20260505194121 77 23 4.0 13.0 0.00 0.00 0.00 33
20260505193120 77 23 3.0 8.0 0.00 0.00 0.00 35
20260505192123 77 23 3.0 5.0 0.00 0.00 0.00 37
20260505191121 76 23 2.0 4.0 0.00 0.00 0.00 35
20260505190122 76 0 3.0 6.0 0.00 0.00 0.00 39
20260505185121 75 23 3.0 8.0 0.00 0.00 0.00 39
20260505184122 75 338 4.0 8.0 0.00 0.00 0.00 39
20260505183120 74 0 2.0 5.0 0.00 0.00 0.00 40
20260505182120 73 0 3.0 6.0 0.00 0.00 0.00 40
20260505181121 72 0 1.0 6.0 0.00 0.00 0.00 43
20260505180119 72 23 3.0 6.0 0.00 0.00 0.00 41
20260505175119 72 23 3.0 8.0 0.00 0.00 0.00 42
20260505174120 71 0 5.0 10.0 0.00 0.00 0.00 46
20260505173120 70 23 3.0 8.0 0.00 0.00 0.00 42
20260505172118 69 23 3.0 7.0 0.00 0.00 0.00 47
20260505171138 68 0 4.0 9.0 0.00 0.00 0.00 47
20260505170117 68 23 4.0 6.0 0.00 0.00 0.00 48
20260505165118 67 23 4.0 11.0 0.00 0.00 0.00 48
20260505164156 66 23 3.0 6.0 0.00 0.00 0.00 50
20260505163117 66 0 5.0 10.0 0.00 0.00 0.00 49
20260505162117 65 23 4.0 8.0 0.00 0.00 0.00 50
20260505161117 65 45 2.0 5.0 0.00 0.00 0.00 51
20260505160116 64 0 3.0 6.0 0.00 0.00 0.00 50
20260505153137 63 0 2.0 7.0 0.00 0.00 0.00 53
20260505152133 62 23 2.0 5.0 0.00 0.00 0.00 52
20260505151116 62 45 1.0 4.0 0.00 0.00 0.00 53
20260505150115 61 45 1.0 4.0 0.00 0.00 0.00 54
20260505140113 57 45 2.0 4.0 0.00 0.00 0.00 56
20260505130112 56 23 3.0 5.0 0.00 0.00 0.00 57
20260505124109 56 23 3.0 5.0 0.00 0.00 0.00 58
20260505123131 56 23 3.0 5.0 0.00 0.00 0.00 58
20260505122111 55 23 4.0 10.0 0.00 0.00 0.00 58
20260505121111 55 23 4.0 7.0 0.00 0.00 0.00 60
20260505120110 55 23 4.0 9.0 0.00 0.00 0.00 61
20260505115109 55 0 4.0 8.0 0.00 0.00 0.00 61
20260505114111 57 23 3.0 7.0 0.00 0.00 0.00 59
20260505113110 57 23 3.0 5.0 0.00 0.00 0.00 57
20260505112109 57 23 3.0 7.0 0.00 0.00 0.00 58
20260505111109 58 23 3.0 4.0 0.00 0.00 0.00 58
20260505110109 59 45 1.0 2.0 0.00 0.00 0.00 55
20260505102107 58 0 3.0 5.0 0.00 0.00 0.00 61
20260505101106 60 23 2.0 5.0 0.00 0.00 0.00 58
20260505100107 60 23 1.0 3.0 0.00 0.00 0.00 58
20260505095106 60 0.0 0.0 0.00 0.00 0.00 58
20260505094106 61 0.0 2.0 0.00 0.00 0.00 56
20260505093105 61 0.0 0.0 0.00 0.00 0.00 55
20260505092105 61 0.0 0.0 0.00 0.00 0.00 58
20260505091146 61 0.0 0.0 0.00 0.00 0.00 57
20260505090106 62 0.0 0.0 0.00 0.00 0.00 56
20260505085124 62 0.0 0.0 0.00 0.00 0.00 57
20260505084104 63 0.0 0.0 0.00 0.00 0.00 57
20260505083103 64 0.0 0.0 0.00 0.00 0.00 55